Wind_Speed
36 39 41 43 45 48 50 52 54 57 60 63 66 69 73 77 80 83 84 83 80 76 72 68 66 66 66 66 64 64 64 62 63 63 61 60 61 62 65 67 68 70 74
37 39 42 44 46 49 51 53 55 58 60 63 67 70 73 77 80 82 82 80 76 73 70 67 66 66 66 65 64 64 63 61 61 61 59 56 53 56 60 64 67 70 72
38 40 43 45 48 50 52 54 56 58 61 64 67 71 74 77 80 81 80 78 74 71 68 66 66 65 65 64 63 63 61 59 56 56 55 53 48 46 51 58 64 68 70
39 41 43 46 48 51 53 55 57 59 61 65 68 71 74 77 79 80 78 75 72 70 67 66 65 64 64 63 62 61 59 58 55 52 49 47 45 41 41 49 57 63 67
40 42 44 47 49 52 53 55 57 60 62 65 68 71 74 77 79 79 76 73 70 68 66 65 64 64 63 62 61 59 57 56 54 51 47 43 39 36 35 39 48 56 62
41 43 46 48 51 53 55 57 59 61 63 66 69 72 74 77 78 77 75 71 69 67 65 64 63 63 63 61 59 57 55 54 51 48 45 42 36 32 29 30 38 47 55
41 44 47 50 53 55 57 59 60 62 64 67 69 72 74 76 77 76 73 70 67 65 64 63 62 62 62 60 58 56 54 52 48 45 42 39 35 30 25 23 28 37 47
43 46 49 52 54 57 60 61 62 63 65 68 70 72 74 76 76 75 72 69 67 65 63 63 62 61 61 59 57 55 53 50 47 43 39 36 32 27 20 17 20 28 38
44 47 50 53 56 59 62 64 65 65 66 68 70 72 74 75 75 74 71 68 66 64 63 62 61 61 60 58 56 54 52 49 45 41 37 33 28 23 17 11 13 20 29
46 49 52 54 57 60 63 66 67 67 67 69 71 72 74 75 74 73 70 67 65 63 62 61 60 60 59 57 55 53 51 48 44 40 34 30 26 20 15 9 8 13 21
47 51 53 56 59 61 64 67 69 69 69 69 71 72 73 74 74 72 69 67 65 63 61 61 60 59 58 56 54 52 50 47 43 38 32 28 24 19 14 9 7 10 17
48 51 55 57 60 62 65 67 70 71 71 70 71 72 73 74 73 71 69 66 64 63 61 60 59 58 58 56 54 51 49 46 42 37 31 26 23 19 14 10 8 9 13
48 52 55 58 60 63 66 68 70 72 72 71 71 72 73 73 73 71 68 65 63 62 61 59 58 57 57 55 53 51 49 46 43 38 31 26 23 19 15 12 9 9 12
49 52 55 58 61 63 66 68 70 73 74 73 72 72 72 72 72 70 67 65 63 61 60 59 58 57 56 55 53 51 48 46 43 39 33 27 23 19 15 12 10 9 11
49 52 55 58 62 64 66 68 70 73 74 73 72 72 72 72 72 70 67 64 62 61 60 58 57 56 55 55 53 51 48 46 43 40 35 29 24 20 16 13 10 10 11
50 52 55 58 61 64 66 68 70 72 74 74 73 72 72 72 71 70 67 64 62 60 59 58 57 56 55 54 53 51 49 47 44 41 36 31 25 21 18 15 12 11 11
51 53 55 58 61 64 66 68 70 72 74 74 73 72 72 71 70 69 66 64 61 59 58 57 56 55 54 53 52 51 49 47 44 41 37 32 27 22 19 16 13 12 12
52 53 55 57 60 63 66 67 70 71 73 74 73 72 72 71 70 69 66 63 61 59 58 56 55 54 53 53 52 50 48 47 45 42 39 34 29 24 19 16 14 12 12
52 54 55 57 60 63 66 67 69 71 72 74 73 72 71 70 69 68 66 63 61 59 57 56 55 53 53 52 52 50 48 47 45 43 40 36 31 25 21 17 14 12 12
53 54 56 57 59 62 65 67 68 70 71 73 73 72 71 70 69 68 66 63 61 58 57 55 55 53 52 52 52 51 49 47 45 44 42 38 33 27 22 18 14 11 11
53 55 56 57 59 61 64 66 68 69 70 72 73 72 71 70 69 67 66 63 60 58 56 55 54 53 51 51 51 51 50 48 46 44 42 39 34 29 23 18 14 11 10
54 56 57 57 59 60 63 65 67 68 70 71 72 71 70 69 68 67 65 63 60 58 56 54 54 52 51 50 50 50 49 48 46 45 43 40 35 30 24 19 14 10 9
55 56 57 57 58 60 61 64 66 67 68 69 70 70 69 68 67 66 65 63 60 58 55 54 53 51 50 50 49 49 49 48 46 45 43 41 37 31 25 20 15 10 8
55 56 57 58 58 59 61 63 64 66 67 68 69 69 68 67 67 65 64 63 61 58 55 53 52 51 50 49 49 48 48 47 46 45 42 40 37 32 26 21 15 11 7
56 56 57 58 58 59 60 62 63 64 65 66 67 68 67 66 66 65 64 62 61 58 56 53 52 50 49 49 49 49 49 48 47 45 42 39 36 32 27 22 16 11 7
57 57 57 58 58 59 60 61 62 63 64 64 65 66 66 65 64 63 63 62 60 58 55 53 52 50 49 49 48 49 49 48 47 46 43 38 34 32 28 22 17 12 7
Wind_Direction
332 331 330 329 329 328 328 328 328 327 327 328 328 329 328 328 328 328 328 328 327 327 326 325 324 322 321 319 317 314 312 308 303 298 292 284 275 266 258 252 247 242 237
334 333 332 331 330 330 330 330 329 329 329 330 330 331 330 330 330 330 330 330 330 330 329 328 326 325 324 322 320 318 316 313 311 306 300 290 277 266 258 250 245 240 236
337 336 335 334 333 332 332 332 331 331 331 332 332 332 332 333 333 333 332 332 332 332 331 330 329 328 328 326 325 323 321 320 318 314 310 302 289 270 256 248 243 238 235
342 341 340 338 337 335 334 334 334 333 333 334 334 335 335 335 335 335 335 334 334 334 334 333 332 332 331 330 329 328 326 325 324 322 318 312 303 286 261 246 240 236 233
347 346 345 343 342 340 338 337 336 336 336 336 337 337 337 337 337 338 337 337 336 336 336 336 335 335 334 333 333 332 330 329 329 328 325 320 312 298 276 251 238 234 231
349 348 348 346 345 344 342 340 339 339 338 338 339 339 339 339 340 340 339 339 338 338 338 338 338 338 337 337 336 335 334 333 332 332 331 328 322 311 289 261 240 232 228
350 349 349 349 348 347 346 344 342 341 341 340 341 340 341 341 342 342 341 341 341 341 341 341 341 340 340 340 339 339 338 337 336 335 335 333 328 320 302 273 244 231 226
351 350 350 350 350 349 348 347 345 344 343 342 342 342 342 343 343 343 343 343 343 343 343 343 343 343 343 343 343 343 342 342 340 339 339 338 334 329 315 285 250 232 224
351 351 350 350 350 350 350 349 348 346 345 344 344 344 344 345 345 345 345 345 345 345 345 345 345 346 346 346 346 346 346 346 345 343 343 343 342 339 330 302 258 234 225
351 351 351 350 350 350 350 350 349 348 346 345 345 345 346 346 347 346 346 346 346 346 347 347 347 348 348 348 348 349 349 349 348 348 348 349 349 347 340 319 270 236 225
351 351 350 350 350 350 350 350 350 349 348 347 346 347 347 347 348 348 348 348 348 348 348 349 349 349 350 350 351 351 351 351 351 351 351 352 352 350 346 328 285 244 226
349 350 350 349 349 349 350 350 351 350 349 348 347 348 348 348 349 349 349 349 349 350 350 350 351 351 352 352 352 353 353 353 352 351 350 350 351 348 341 327 292 253 231
346 347 348 348 348 349 349 350 350 351 350 349 348 348 349 349 350 350 350 350 351 351 351 352 352 353 354 354 354 354 354 354 353 352 350 347 346 344 337 324 297 260 239
344 345 346 347 347 348 349 349 350 350 350 350 349 349 350 350 351 351 351 351 351 352 352 353 353 354 355 355 356 355 356 355 355 353 350 347 343 341 335 323 300 267 244
340 342 344 345 346 347 348 348 349 350 350 350 349 349 350 350 351 352 352 352 352 352 353 354 354 355 355 356 357 356 356 356 356 354 351 346 342 337 331 322 302 273 250
337 339 341 342 344 345 346 347 348 349 350 350 350 349 350 351 351 352 353 353 353 353 353 354 355 355 356 356 357 357 357 357 356 355 352 348 342 335 327 321 303 277 255
333 336 338 339 342 344 345 346 347 348 349 350 350 350 350 351 351 352 353 353 353 354 354 354 355 355 356 357 357 358 358 358 357 355 353 350 344 337 327 318 304 281 259
330 332 334 337 339 341 344 344 345 347 348 349 349 349 350 351 351 352 353 354 354 354 354 354 355 355 356 357 358 358 358 357 357 356 354 351 347 341 332 319 305 284 262
325 329 331 334 336 339 341 343 344 346 347 348 349 349 350 351 351 352 353 354 354 354 355 355 355 355 356 357 358 358 358 357 357 357 355 352 349 343 336 325 309 286 262
322 325 329 331 333 336 339 341 343 344 346 347 348 349 349 350 351 352 353 354 354 355 355 355 355 356 356 357 357 357 358 358 357 357 356 354 351 346 340 331 314 291 263
319 322 325 328 331 333 336 339 341 343 344 346 347 348 348 349 351 352 353 354 355 355 355 355 355 356 356 357 357 357 357 358 358 357 357 355 353 349 343 337 323 298 265
315 318 322 325 328 330 333 336 338 341 342 344 346 347 348 349 350 351 353 354 355 355 355 355 355 355 356 356 357 357 357 357 357 357 357 357 355 352 348 341 330 308 270
312 315 318 322 325 327 330 333 336 338 341 342 344 346 347 348 349 351 352 353 354 355 355 355 355 356 356 356 357 357 357 357 357 357 357 357 357 355 351 347 336 319 283
309 312 315 318 321 324 327 330 333 336 338 340 342 344 346 347 348 350 351 353 354 355 355 355 355 356 356 356 357 357 358 358 357 357 357 357 357 356 354 350 344 328 300
306 309 311 314 318 321 324 327 330 333 336 338 340 343 344 346 347 349 351 352 353 354 355 355 355 356 356 356 357 357 358 358 358 358 357 357 357 357 356 354 350 340 313
303 305 308 311 314 317 320 324 327 330 333 336 338 341 343 344 346 348 350 352 353 354 355 355 355 355 356 356 357 358 358 358 358 358 357 357 357 358 358 356 353 347 333
Height
5819 5813 5807 5800 5794 5786 5778 5769 5760 5750 5739 5728 5716 5703 5688 5672 5655 5637 5618 5599 5581 5564 5549 5534 5520 5507 5494 5481 5467 5455 5444 5432 5420 5411 5404 5400 5396 5394 5395 5400 5408 5415 5423
5815 5809 5802 5795 5787 5779 5770 5761 5751 5741 5730 5718 5705 5691 5676 5660 5642 5624 5604 5586 5568 5552 5536 5521 5508 5494 5480 5466 5452 5439 5426 5415 5401 5387 5377 5372 5372 5368 5368 5373 5380 5388 5398
5810 5804 5796 5788 5780 5772 5763 5753 5743 5731 5720 5707 5694 5679 5664 5647 5630 5611 5592 5573 5556 5540 5524 5510 5496 5481 5467 5453 5438 5424 5409 5397 5386 5371 5357 5347 5343 5343 5345 5348 5354 5363 5375
5805 5798 5791 5782 5774 5765 5755 5745 5734 5722 5710 5697 5683 5668 5653 5636 5618 5599 5581 5562 5545 5529 5514 5499 5485 5470 5455 5440 5426 5411 5396 5382 5370 5359 5346 5334 5324 5320 5322 5327 5332 5341 5352
5800 5793 5785 5776 5767 5757 5747 5736 5725 5713 5700 5687 5672 5657 5641 5625 5607 5588 5570 5552 5535 5519 5504 5489 5475 5460 5445 5430 5415 5400 5386 5371 5357 5345 5334 5323 5314 5307 5304 5308 5314 5322 5333
5795 5787 5779 5770 5761 5751 5740 5728 5716 5704 5691 5677 5662 5647 5631 5614 5596 5578 5561 5544 5527 5511 5496 5481 5466 5451 5436 5420 5405 5391 5377 5363 5349 5336 5324 5313 5305 5297 5293 5294 5299 5307 5317
5791 5783 5774 5764 5754 5744 5733 5721 5708 5695 5682 5668 5653 5638 5622 5605 5587 5569 5552 5535 5520 5504 5488 5473 5458 5443 5428 5412 5397 5383 5369 5355 5342 5329 5318 5307 5298 5291 5286 5285 5289 5296 5304
5786 5778 5768 5759 5748 5737 5726 5713 5700 5687 5674 5659 5645 5629 5613 5596 5578 5561 5544 5527 5512 5496 5481 5466 5451 5436 5421 5406 5391 5376 5362 5349 5336 5324 5313 5303 5294 5287 5283 5281 5283 5288 5295
5781 5772 5763 5753 5742 5731 5719 5706 5693 5679 5666 5651 5637 5621 5605 5588 5571 5553 5536 5520 5505 5490 5475 5460 5445 5430 5415 5400 5386 5372 5358 5345 5332 5320 5310 5301 5293 5287 5282 5281 5281 5285 5289
5776 5767 5757 5747 5736 5725 5713 5700 5686 5673 5659 5644 5629 5614 5598 5581 5564 5547 5530 5515 5499 5484 5469 5455 5440 5426 5411 5396 5382 5369 5355 5342 5330 5319 5309 5301 5294 5288 5284 5282 5282 5283 5286
5771 5762 5752 5742 5731 5719 5707 5694 5680 5666 5652 5637 5623 5607 5591 5575 5558 5541 5525 5509 5494 5479 5465 5450 5436 5422 5408 5393 5380 5366 5353 5341 5330 5319 5310 5303 5296 5290 5286 5284 5283 5283 5284
5766 5756 5747 5736 5725 5713 5701 5688 5674 5660 5646 5631 5616 5601 5585 5569 5553 5536 5520 5505 5490 5475 5461 5447 5433 5419 5405 5391 5377 5365 5352 5341 5330 5319 5311 5304 5297 5292 5288 5285 5283 5283 5284
5760 5751 5741 5731 5720 5708 5696 5682 5669 5655 5640 5625 5611 5596 5580 5564 5548 5532 5516 5500 5486 5472 5457 5443 5430 5416 5403 5389 5376 5363 5351 5340 5329 5320 5311 5304 5298 5293 5289 5286 5284 5283 5284
5755 5746 5736 5726 5715 5703 5690 5677 5664 5650 5635 5620 5605 5590 5575 5559 5543 5528 5512 5497 5483 5469 5455 5441 5427 5414 5401 5388 5375 5363 5351 5340 5329 5319 5311 5304 5298 5293 5289 5286 5283 5282 5283
5749 5740 5731 5721 5709 5698 5685 5672 5659 5645 5630 5616 5601 5586 5571 5555 5539 5524 5508 5494 5479 5465 5452 5439 5425 5412 5399 5387 5374 5362 5351 5340 5329 5319 5310 5303 5297 5292 5288 5284 5282 5282 5282
5744 5735 5725 5715 5704 5693 5680 5668 5654 5640 5626 5611 5596 5582 5567 5551 5536 5521 5505 5491 5477 5463 5450 5437 5424 5411 5398 5385 5373 5361 5350 5339 5329 5319 5310 5302 5296 5291 5286 5283 5281 5280 5279
5737 5728 5719 5709 5699 5688 5676 5663 5650 5636 5622 5607 5592 5578 5563 5548 5533 5518 5503 5488 5475 5461 5448 5435 5422 5410 5397 5385 5373 5361 5350 5339 5329 5319 5310 5302 5295 5289 5285 5281 5279 5277 5277
5731 5722 5713 5704 5693 5682 5671 5658 5645 5632 5618 5603 5589 5574 5559 5545 5530 5515 5500 5486 5472 5459 5446 5434 5421 5409 5397 5385 5373 5362 5350 5340 5329 5319 5310 5301 5294 5288 5283 5280 5277 5275 5274
5724 5716 5707 5697 5687 5677 5665 5653 5640 5627 5614 5600 5585 5571 5556 5542 5527 5512 5498 5484 5470 5457 5444 5432 5420 5408 5396 5384 5373 5361 5351 5340 5329 5319 5309 5300 5293 5286 5281 5277 5274 5273 5272
5717 5709 5700 5691 5681 5671 5660 5648 5636 5623 5610 5596 5582 5568 5553 5539 5524 5510 5496 5481 5468 5455 5442 5430 5418 5407 5395 5383 5372 5361 5350 5340 5329 5319 5309 5300 5291 5285 5279 5275 5272 5270 5270
5709 5701 5693 5684 5675 5665 5654 5643 5631 5619 5606 5592 5579 5565 5550 5536 5522 5507 5493 5480 5466 5454 5441 5429 5417 5405 5394 5383 5371 5360 5349 5338 5328 5318 5309 5299 5291 5283 5278 5273 5270 5268 5268
5700 5692 5685 5677 5668 5658 5648 5638 5626 5614 5602 5589 5575 5562 5548 5533 5519 5505 5491 5478 5465 5452 5440 5428 5416 5404 5393 5382 5371 5360 5349 5338 5328 5318 5308 5299 5290 5282 5277 5272 5269 5267 5266
5691 5684 5676 5669 5660 5651 5642 5632 5621 5609 5597 5585 5572 5558 5545 5531 5517 5503 5490 5476 5463 5451 5439 5427 5416 5404 5393 5382 5371 5360 5349 5338 5328 5318 5307 5298 5289 5282 5276 5271 5267 5265 5264
5681 5675 5668 5660 5653 5644 5635 5626 5615 5604 5593 5581 5568 5555 5542 5528 5515 5501 5488 5475 5462 5450 5438 5426 5415 5404 5393 5382 5372 5361 5350 5339 5328 5318 5308 5298 5290 5282 5276 5271 5267 5264 5263
5672 5665 5659 5652 5644 5636 5628 5619 5609 5599 5588 5576 5564 5552 5539 5526 5512 5499 5486 5473 5460 5448 5436 5425 5414 5403 5393 5382 5371 5360 5349 5338 5328 5317 5308 5299 5290 5283 5276 5271 5267 5264 5262
5661 5655 5649 5642 5635 5628 5620 5612 5603 5593 5582 5571 5560 5548 5535 5523 5510 5496 5483 5470 5458 5446 5434 5422 5412 5401 5390 5379 5369 5358 5347 5337 5327 5317 5307 5298 5291 5283 5277 5271 5267 5263 5261